FENGYUN 1C DEB

Satellite information

Favourite Embed

Satellite Type and Status

DEBRISIN ORBIT

Key statistics

Satellite FENGYUN 1C DEB at a glance.

Uptime

9655

Days in orbit

Revolutions

≈ 14.4

Per day

Orbit

SSO

Sun Synchronous Orbit

Inclination

99.0

Latest

Satellite identification and parameters

Extended collection of information and parameters for FENGYUN 1C DEB.

Object identification

Identified? True

Debris? True

Object name: FENGYUN 1C DEB

International designator: 1999-025DZS

Object number (NORAD): 36696

Object ID (CCSDS): 36696

Country: PEOPLES REPUBLIC OF CHINA (PRC)

Current information (Y/N): Y

RCS size: SMALL

Orbital parameters

Period: 100.13 minutes

Inclination: 98.995 deg

SMA: 7142.83 km

Apoapsis: 781.886 km

Periapsis: 747.505 km

RAAN: 289.2577 deg

Eccentricy: 0.0024067

Argument of periapsis: 152.2013 deg

Mean anomaly: 208.0464 deg

Mean motion: 14.38127027 rev/day

Mean motion (dot): 0.00006177 rev/day2

B* drag term: 0.0020441 1/REarth

Two-line elements (TLE)

Creation date: Oct. 10, 2025, 3:46 p.m.

Reference frame: TEME

Reference center: EARTH

Epoch: Oct. 10, 2025, 6:31 a.m. UTC

TLE line 0: 0 FENGYUN 1C DEB

TLE line 1: 1 36696U 99025DZS 25283.27161847 .00006177 00000-0 20441-2 0 9995

TLE line 2: 2 36696 98.9950 289.2577 0024067 152.2013 208.0464 14.38127027634838

Live tracking on map

Real-time ground track for satellite FENGYUN 1C DEB.

In-orbit conjunctions

A list of the most updated potential collisions computed for object FENGYUN 1C DEB.

Target Orbit TCA Probability of collision Miss distance Type
COSMOS 783 LEO 2025-06-10 20:24:03 0.00010406 977.0 (m) PAYLOAD
START 1 LEO 2024-12-25 13:21:29 0.0006335651 286.0 (m) PAYLOAD
CZ-6A DEB LEO 2024-12-12 20:25:51 0.0004382183 554.0 (m) DEBRIS
CZ-6A DEB LEO 2024-09-28 23:25:00 0.0001247152 349.0 (m) DEBRIS

Associated space launch

Chinese polar orbiting meteorological satellite

FENGYUN 1C DEB was lifted into orbit during the mission ‘Long March 4B | Feng Yun 1C’, on board a Long March 4B space rocket.

The launch took place on May 10, 1999, 1:33 a.m. from Launch Complex 7.

For more information about the launch, click the button.

Launch to space Long March 4B | Feng Yun 1C
Long March 4B | Feng Yun 1C

Agency: N/A

Status: Launch Successful

Launch date: May 10, 1999, 1:33 a.m. UTC

Rocket: Long March 4B

Launch pad: Launch Complex 7

Location: Taiyuan Satellite Launch Center, People's Republic of China

...

Latest news about this satellite

There are no fresh news available about this satellite. Check back as we update our databases every day.


Newsletter sign-up

Weekly statistics, charts and insights to help you stay on top of the space industry.